QPF
0.00 0.01 0.02 0.01 0.00 0.00 0.00 0.00 0.00 0.00 0.00 0.00 0.00 0.01 0.00 0.00 0.00 0.00 0.00 0.00 0.00 0.00 0.00 0.01 0.02 0.02 0.04 0.14 0.18 0.12 0.05 0.00 0.00 0.00 0.00 0.00 0.00 0.00 0.00 0.00 0.00 0.00 0.00
0.00 0.00 0.00 0.00 0.00 0.00 0.00 0.00 0.00 0.00 0.00 0.00 0.00 0.00 0.00 0.00 0.00 0.00 0.00 0.00 0.00 0.00 0.00 0.01 0.01 0.01 0.03 0.10 0.15 0.12 0.04 0.00 0.00 0.00 0.00 0.00 0.00 0.00 0.00 0.00 0.00 0.00 0.00
0.00 0.00 0.00 0.00 0.00 0.00 0.00 0.00 0.00 0.00 0.00 0.00 0.00 0.00 0.00 0.00 0.00 0.00 0.00 0.00 0.00 0.00 0.00 0.00 0.00 0.00 0.01 0.03 0.08 0.03 0.01 0.00 0.00 0.00 0.00 0.00 0.00 0.00 0.00 0.00 0.00 0.00 0.00
0.00 0.00 0.00 0.00 0.00 0.00 0.00 0.00 0.00 0.00 0.00 0.00 0.00 0.00 0.00 0.00 0.00 0.00 0.00 0.00 0.00 0.00 0.00 0.00 0.00 0.00 0.00 0.01 0.03 0.01 0.00 0.00 0.00 0.00 0.00 0.00 0.00 0.00 0.00 0.00 0.00 0.00 0.00
0.00 0.00 0.00 0.00 0.00 0.00 0.00 0.00 0.00 0.00 0.00 0.00 0.00 0.00 0.00 0.00 0.00 0.00 0.00 0.00 0.00 0.00 0.00 0.00 0.00 0.00 0.00 0.00 0.00 0.01 0.00 0.00 0.00 0.00 0.00 0.00 0.00 0.00 0.00 0.00 0.00 0.00 0.00
0.00 0.00 0.00 0.00 0.00 0.00 0.00 0.00 0.00 0.00 0.00 0.00 0.00 0.00 0.00 0.00 0.00 0.00 0.00 0.00 0.00 0.00 0.00 0.00 0.00 0.00 0.00 0.00 0.00 0.00 0.00 0.00 0.00 0.00 0.00 0.00 0.00 0.00 0.00 0.00 0.00 0.00 0.00
0.00 0.00 0.00 0.00 0.00 0.00 0.00 0.00 0.00 0.00 0.00 0.00 0.01 0.00 0.00 0.01 0.00 0.00 0.00 0.00 0.00 0.00 0.00 0.00 0.00 0.00 0.00 0.00 0.00 0.00 0.00 0.00 0.00 0.00 0.00 0.00 0.00 0.00 0.00 0.00 0.00 0.00 0.00
0.00 0.00 0.00 0.00 0.00 0.00 0.01 0.01 0.00 0.00 0.00 0.01 0.03 0.01 0.00 0.00 0.00 0.00 0.00 0.00 0.00 0.00 0.00 0.00 0.00 0.00 0.00 0.00 0.00 0.00 0.00 0.00 0.00 0.00 0.01 0.01 0.00 0.00 0.00 0.00 0.00 0.00 0.01
0.00 0.00 0.00 0.00 0.00 0.01 0.03 0.02 0.00 0.00 0.01 0.01 0.01 0.01 0.00 0.00 0.00 0.00 0.00 0.00 0.00 0.00 0.00 0.00 0.00 0.00 0.00 0.00 0.00 0.00 0.00 0.00 0.00 0.00 0.00 0.00 0.00 0.00 0.00 0.00 0.00 0.00 0.02
0.00 0.01 0.00 0.00 0.00 0.01 0.00 0.00 0.00 0.00 0.00 0.00 0.01 0.01 0.00 0.00 0.00 0.00 0.00 0.00 0.00 0.00 0.00 0.00 0.00 0.00 0.00 0.00 0.00 0.00 0.00 0.00 0.00 0.00 0.00 0.00 0.00 0.00 0.00 0.00 0.01 0.01 0.02
0.05 0.04 0.02 0.03 0.00 0.00 0.00 0.00 0.00 0.00 0.00 0.00 0.01 0.01 0.01 0.00 0.00 0.00 0.00 0.00 0.00 0.00 0.00 0.00 0.00 0.00 0.00 0.00 0.00 0.00 0.00 0.00 0.00 0.00 0.00 0.00 0.00 0.00 0.00 0.00 0.01 0.00 0.00
0.01 0.01 0.00 0.01 0.00 0.00 0.00 0.00 0.00 0.00 0.00 0.00 0.00 0.00 0.01 0.00 0.00 0.00 0.00 0.01 0.00 0.00 0.00 0.00 0.00 0.00 0.00 0.00 0.00 0.00 0.00 0.00 0.00 0.00 0.00 0.00 0.00 0.00 0.00 0.00 0.00 0.00 0.00
0.09 0.07 0.05 0.01 0.00 0.00 0.00 0.00 0.00 0.00 0.00 0.00 0.00 0.00 0.01 0.01 0.01 0.00 0.00 0.00 0.00 0.00 0.00 0.00 0.00 0.00 0.00 0.00 0.00 0.00 0.00 0.00 0.00 0.00 0.00 0.00 0.00 0.00 0.00 0.00 0.00 0.00 0.00
0.05 0.08 0.04 0.01 0.00 0.00 0.00 0.00 0.00 0.01 0.01 0.01 0.01 0.01 0.01 0.01 0.01 0.00 0.00 0.00 0.00 0.00 0.00 0.00 0.00 0.00 0.00 0.00 0.00 0.00 0.00 0.00 0.00 0.00 0.00 0.00 0.00 0.00 0.00 0.00 0.00 0.00 0.00
0.00 0.01 0.00 0.00 0.01 0.00 0.00 0.00 0.00 0.00 0.00 0.00 0.00 0.00 0.00 0.01 0.02 0.02 0.00 0.00 0.00 0.01 0.02 0.00 0.00 0.00 0.00 0.00 0.00 0.00 0.00 0.00 0.00 0.00 0.00 0.00 0.00 0.00 0.00 0.00 0.00 0.00 0.00
0.00 0.01 0.01 0.00 0.00 0.00 0.00 0.00 0.00 0.00 0.00 0.00 0.00 0.00 0.00 0.00 0.00 0.00 0.00 0.00 0.00 0.01 0.02 0.01 0.01 0.01 0.00 0.01 0.01 0.00 0.00 0.00 0.00 0.00 0.00 0.00 0.00 0.00 0.00 0.00 0.00 0.00 0.00
0.04 0.02 0.00 0.00 0.00 0.00 0.00 0.00 0.00 0.00 0.00 0.00 0.00 0.00 0.00 0.00 0.00 0.00 0.00 0.00 0.00 0.00 0.00 0.01 0.01 0.01 0.02 0.04 0.05 0.04 0.03 0.01 0.00 0.00 0.00 0.00 0.00 0.00 0.00 0.00 0.00 0.00 0.00
0.00 0.00 0.00 0.00 0.00 0.00 0.00 0.00 0.00 0.00 0.00 0.00 0.00 0.00 0.00 0.00 0.00 0.00 0.00 0.00 0.00 0.00 0.00 0.00 0.00 0.00 0.02 0.02 0.02 0.02 0.01 0.01 0.00 0.00 0.00 0.00 0.00 0.00 0.00 0.00 0.00 0.00 0.00
0.03 0.00 0.00 0.00 0.00 0.00 0.00 0.00 0.00 0.00 0.00 0.00 0.00 0.00 0.00 0.00 0.00 0.00 0.00 0.00 0.00 0.00 0.00 0.00 0.00 0.00 0.00 0.01 0.02 0.01 0.01 0.00 0.00 0.00 0.00 0.00 0.00 0.00 0.00 0.00 0.00 0.00 0.00
0.08 0.06 0.03 0.01 0.00 0.00 0.00 0.00 0.00 0.00 0.00 0.01 0.01 0.00 0.00 0.00 0.00 0.00 0.00 0.00 0.00 0.00 0.00 0.00 0.00 0.00 0.00 0.00 0.00 0.00 0.00 0.00 0.00 0.00 0.00 0.00 0.00 0.00 0.00 0.00 0.00 0.00 0.00
0.01 0.00 0.00 0.00 0.00 0.00 0.00 0.00 0.01 0.01 0.02 0.03 0.06 0.04 0.00 0.00 0.00 0.00 0.00 0.00 0.00 0.00 0.00 0.00 0.00 0.01 0.00 0.00 0.00 0.00 0.00 0.00 0.00 0.00 0.00 0.00 0.00 0.00 0.00 0.00 0.00 0.00 0.00
0.00 0.00 0.00 0.00 0.00 0.00 0.00 0.00 0.01 0.02 0.02 0.04 0.08 0.05 0.00 0.00 0.00 0.00 0.00 0.00 0.00 0.00 0.00 0.00 0.01 0.01 0.00 0.00 0.00 0.00 0.00 0.00 0.00 0.00 0.00 0.00 0.00 0.00 0.00 0.00 0.00 0.00 0.00
0.00 0.00 0.00 0.00 0.00 0.00 0.00 0.00 0.02 0.03 0.05 0.05 0.02 0.00 0.00 0.00 0.00 0.00 0.00 0.00 0.00 0.00 0.00 0.00 0.00 0.00 0.00 0.00 0.00 0.00 0.00 0.01 0.02 0.03 0.02 0.01 0.00 0.00 0.00 0.00 0.00 0.00 0.00
0.00 0.00 0.00 0.00 0.00 0.00 0.00 0.02 0.02 0.00 0.00 0.00 0.00 0.00 0.00 0.00 0.00 0.00 0.00 0.00 0.00 0.00 0.00 0.00 0.00 0.00 0.00 0.00 0.00 0.00 0.00 0.00 0.00 0.00 0.00 0.01 0.01 0.00 0.00 0.00 0.00 0.00 0.00
0.00 0.00 0.00 0.00 0.00 0.00 0.00 0.00 0.00 0.00 0.00 0.00 0.00 0.00 0.00 0.00 0.00 0.00 0.00 0.00 0.00 0.00 0.01 0.01 0.00 0.00 0.00 0.00 0.00 0.00 0.00 0.00 0.00 0.00 0.00 0.00 0.00 0.00 0.00 0.00 0.00 0.00 0.00
0.00 0.00 0.00 0.00 0.00 0.00 0.00 0.00 0.00 0.00 0.00 0.00 0.00 0.00 0.00 0.00 0.00 0.01 0.01 0.01 0.01 0.00 0.00 0.00 0.00 0.00 0.00 0.00 0.00 0.00 0.00 0.00 0.00 0.00 0.00 0.00 0.00 0.00 0.00 0.00 0.00 0.00 0.00
MSLP
1010.43 1010.65 1011.12 1011.43 1011.77 1012.29 1012.37 1012.49 1012.71 1012.87 1013.17 1013.35 1013.44 1013.41 1013.53 1013.55 1013.71 1013.76 1013.73 1013.79 1013.78 1013.75 1013.86 1013.96 1013.76 1013.84 1013.52 1014.03 1014.05 1014.16 1014.43 1014.79 1016.33 1017.98 1018.65 1019.12 1019.37 1019.38 1019.40 1019.66 1019.60 1019.45 1020.38
1010.10 1010.34 1010.81 1011.16 1011.44 1011.90 1012.13 1012.30 1012.64 1012.89 1013.08 1013.25 1013.40 1013.50 1013.52 1013.53 1013.68 1013.67 1013.50 1013.52 1013.69 1013.58 1013.69 1013.79 1013.59 1013.58 1013.71 1013.65 1013.94 1014.04 1014.29 1014.86 1016.26 1017.62 1018.59 1019.20 1019.57 1019.62 1019.59 1019.60 1019.25 1019.17 1019.83
1009.51 1010.03 1010.40 1010.80 1011.27 1011.64 1012.00 1012.18 1012.64 1012.85 1012.99 1013.05 1013.29 1013.40 1013.49 1013.58 1013.59 1013.57 1013.49 1013.47 1013.53 1013.74 1013.81 1013.78 1013.72 1013.83 1014.08 1013.72 1014.15 1014.27 1014.63 1015.32 1016.49 1017.31 1018.40 1019.02 1019.65 1019.69 1019.75 1019.96 1019.87 1019.93 1020.17
1009.38 1009.83 1010.05 1010.60 1011.08 1011.44 1011.79 1012.14 1012.41 1012.68 1012.83 1013.08 1013.26 1013.31 1013.40 1013.63 1013.67 1013.61 1013.65 1013.65 1013.58 1013.62 1013.82 1014.14 1014.09 1013.96 1014.15 1014.44 1014.42 1014.69 1014.94 1015.79 1016.62 1017.40 1018.26 1018.91 1019.44 1019.92 1019.82 1019.70 1019.93 1020.40 1020.78
1009.28 1009.62 1010.01 1010.42 1010.93 1011.38 1011.82 1011.95 1012.25 1012.49 1012.67 1012.86 1013.19 1013.38 1013.65 1013.57 1013.41 1013.77 1013.61 1013.72 1013.60 1013.63 1013.92 1013.90 1013.97 1014.69 1014.86 1014.84 1014.80 1015.01 1015.41 1015.81 1016.55 1017.30 1018.01 1018.67 1019.12 1019.58 1019.57 1019.64 1019.81 1019.76 1020.43
1008.91 1009.32 1009.73 1010.19 1010.67 1011.12 1011.55 1011.80 1012.12 1012.34 1012.58 1012.93 1013.02 1013.28 1013.66 1013.87 1014.04 1014.35 1014.07 1013.69 1013.69 1013.65 1013.71 1013.93 1014.17 1014.80 1014.99 1015.16 1015.21 1015.38 1015.46 1015.64 1016.18 1016.89 1017.48 1017.98 1018.46 1018.92 1018.95 1019.03 1019.09 1019.61 1020.28
1008.69 1009.05 1009.64 1010.22 1010.63 1010.99 1011.40 1011.67 1011.88 1012.12 1012.43 1012.78 1013.13 1013.41 1013.77 1014.19 1014.49 1014.72 1014.51 1013.92 1013.70 1013.73 1013.81 1013.73 1013.76 1014.17 1014.47 1014.69 1015.50 1015.74 1015.80 1015.97 1016.19 1016.52 1016.71 1017.12 1017.70 1018.15 1018.74 1019.06 1019.36 1019.36 1018.94
1008.72 1009.34 1009.72 1009.85 1010.42 1011.01 1011.46 1011.74 1011.73 1011.99 1012.36 1012.58 1012.83 1013.41 1014.05 1014.14 1014.61 1014.72 1014.76 1014.24 1014.02 1013.90 1013.98 1013.98 1013.94 1014.31 1014.47 1014.47 1014.78 1015.21 1015.46 1015.85 1016.26 1016.21 1016.02 1016.17 1016.58 1017.44 1017.98 1018.20 1018.48 1018.98 1018.86
1008.96 1009.54 1009.95 1010.27 1010.23 1010.28 1011.15 1011.77 1012.09 1012.19 1012.49 1012.57 1012.73 1013.17 1014.06 1014.32 1014.47 1014.67 1014.85 1014.15 1013.77 1013.90 1014.09 1014.39 1014.40 1014.47 1015.05 1015.21 1014.70 1014.74 1015.11 1015.38 1016.21 1016.44 1016.36 1016.32 1016.58 1016.78 1017.24 1017.95 1018.16 1018.34 1018.11
1008.54 1009.38 1010.14 1010.62 1010.74 1010.59 1010.78 1011.46 1012.33 1012.41 1012.34 1012.74 1012.98 1013.21 1013.65 1014.24 1014.51 1014.46 1014.47 1013.97 1013.54 1013.44 1013.91 1014.47 1014.84 1014.91 1015.28 1015.49 1015.17 1014.87 1014.83 1014.94 1015.30 1015.96 1016.53 1016.62 1016.71 1016.93 1017.35 1016.96 1016.85 1016.92 1017.10
1007.59 1009.23 1010.10 1010.82 1010.85 1010.99 1011.30 1011.45 1011.94 1012.16 1012.01 1012.46 1012.81 1012.98 1013.20 1013.88 1014.36 1014.42 1014.32 1014.08 1013.31 1013.24 1013.28 1013.63 1014.05 1014.87 1015.33 1015.57 1015.64 1014.96 1014.90 1014.75 1015.35 1015.21 1015.37 1015.64 1015.91 1016.25 1016.46 1016.61 1016.06 1015.86 1016.04
1006.82 1007.37 1009.82 1010.83 1011.34 1011.31 1011.44 1011.46 1011.70 1012.15 1012.09 1012.25 1012.61 1012.92 1012.92 1013.54 1013.99 1013.93 1014.09 1014.13 1013.70 1013.30 1013.14 1013.38 1013.99 1014.70 1015.12 1015.49 1015.77 1015.61 1015.62 1015.48 1014.71 1014.43 1014.44 1014.61 1014.91 1015.17 1015.55 1015.72 1016.20 1016.47 1015.92
1007.14 1008.15 1008.88 1010.97 1011.65 1011.78 1011.71 1011.76 1011.78 1011.95 1011.89 1011.90 1012.41 1012.17 1012.10 1012.70 1013.20 1013.71 1013.89 1014.01 1014.16 1014.23 1013.82 1013.61 1013.92 1014.31 1014.99 1015.38 1015.49 1015.68 1015.84 1015.57 1014.73 1014.43 1014.14 1014.12 1014.54 1014.87 1015.31 1016.22 1016.64 1016.87 1017.03
1007.81 1008.60 1008.67 1010.89 1011.71 1011.81 1011.43 1011.10 1011.09 1011.31 1011.74 1012.40 1012.24 1012.02 1012.24 1012.61 1012.88 1013.28 1014.08 1014.19 1014.24 1014.46 1014.39 1014.10 1013.94 1013.89 1014.18 1014.09 1014.47 1015.10 1015.07 1014.89 1014.64 1014.41 1014.05 1013.84 1014.18 1014.75 1015.54 1015.97 1016.14 1016.50 1016.54
1008.10 1008.24 1009.35 1009.86 1010.91 1011.09 1010.93 1010.85 1010.76 1011.28 1011.90 1012.12 1012.17 1012.08 1012.66 1013.04 1013.28 1013.49 1013.49 1013.29 1013.12 1013.06 1013.56 1013.29 1013.19 1013.33 1013.48 1013.77 1013.51 1013.37 1013.65 1013.90 1014.07 1014.14 1013.93 1013.61 1013.67 1013.96 1014.61 1015.03 1015.22 1015.45 1015.55
1008.83 1009.16 1009.85 1009.79 1009.75 1010.15 1010.13 1010.58 1011.30 1011.94 1012.42 1012.80 1013.18 1013.11 1012.24 1013.15 1013.48 1013.56 1013.48 1013.32 1013.23 1013.25 1013.40 1013.06 1012.80 1012.62 1012.72 1012.83 1012.68 1012.85 1012.74 1013.23 1013.45 1013.70 1013.84 1013.38 1013.48 1013.41 1013.96 1014.24 1014.33 1014.36 1014.45
1009.15 1009.43 1009.44 1008.86 1009.35 1009.58 1009.77 1009.80 1010.12 1011.73 1012.10 1012.57 1013.10 1013.34 1013.26 1013.37 1013.67 1013.79 1013.85 1013.73 1013.33 1013.24 1013.00 1012.71 1012.51 1012.58 1012.63 1012.51 1012.61 1012.72 1012.61 1013.23 1013.54 1013.87 1014.20 1013.77 1013.33 1013.36 1013.39 1013.54 1013.91 1014.30 1014.29
1009.44 1009.40 1009.18 1009.21 1009.40 1009.47 1009.25 1009.18 1009.62 1010.12 1010.36 1010.98 1012.12 1012.31 1012.75 1013.14 1013.24 1013.60 1013.84 1013.72 1012.88 1012.89 1012.32 1012.11 1012.08 1012.21 1012.25 1012.26 1012.24 1012.37 1012.89 1013.15 1013.57 1014.23 1014.47 1014.22 1014.12 1013.77 1013.66 1013.27 1012.71 1012.96 1012.92
1009.52 1009.55 1009.47 1009.46 1009.29 1009.33 1009.02 1008.82 1008.93 1009.34 1009.76 1009.99 1010.04 1011.51 1011.89 1012.32 1012.44 1012.79 1013.28 1012.76 1011.18 1011.13 1011.45 1011.65 1011.70 1011.59 1011.55 1011.54 1011.80 1012.07 1012.45 1012.88 1013.21 1013.44 1013.68 1013.93 1014.04 1014.16 1013.33 1013.26 1012.79 1012.37 1011.93
1009.94 1009.81 1009.71 1009.47 1008.80 1008.87 1008.53 1008.34 1008.31 1008.56 1008.95 1009.17 1009.38 1009.62 1010.74 1011.11 1011.23 1011.30 1011.02 1010.65 1010.42 1010.26 1010.52 1010.84 1011.02 1011.29 1011.44 1011.59 1011.84 1011.88 1012.11 1012.35 1012.55 1012.81 1013.05 1013.21 1013.21 1013.66 1013.05 1012.93 1012.13 1011.21 1010.68
1009.57 1009.14 1009.77 1009.33 1008.67 1008.22 1007.96 1007.97 1008.13 1008.35 1008.57 1008.72 1009.76 1010.69 1011.00 1010.76 1009.92 1009.94 1009.86 1009.57 1009.13 1008.92 1008.92 1009.65 1010.17 1010.09 1010.50 1010.81 1010.92 1011.55 1011.90 1011.75 1011.96 1012.00 1012.05 1012.08 1012.32 1012.48 1012.15 1011.92 1011.89 1011.05 1010.37
1009.79 1009.50 1009.25 1009.05 1008.65 1008.53 1008.41 1008.46 1008.57 1008.68 1008.84 1008.88 1009.63 1010.44 1010.66 1010.13 1009.81 1009.76 1009.92 1009.66 1009.40 1009.37 1009.23 1009.66 1009.40 1009.14 1008.88 1009.01 1009.44 1010.22 1010.42 1010.55 1010.64 1010.72 1010.85 1011.11 1011.41 1011.58 1011.72 1011.49 1011.30 1010.56 1010.50
1009.67 1009.51 1009.40 1009.40 1009.23 1009.40 1009.49 1009.28 1009.10 1009.31 1009.39 1009.12 1009.30 1009.65 1009.93 1010.13 1010.24 1010.46 1010.32 1010.27 1010.23 1010.47 1010.62 1010.55 1010.29 1010.04 1010.12 1009.78 1009.72 1009.74 1009.66 1009.81 1009.81 1009.90 1010.05 1010.35 1010.31 1010.53 1011.01 1010.96 1010.63 1010.60 1010.47
1010.93 1010.55 1010.22 1010.41 1010.45 1009.99 1009.33 1009.64 1009.87 1010.17 1009.61 1009.86 1010.54 1011.15 1011.16 1011.29 1011.47 1011.49 1011.31 1011.24 1011.13 1011.15 1011.02 1011.09 1011.30 1011.65 1011.71 1011.95 1011.87 1011.83 1011.82 1011.63 1010.92 1010.10 1010.30 1010.09 1009.94 1010.12 1010.32 1010.26 1010.36 1010.16 1010.06
1011.95 1011.71 1011.68 1011.69 1011.50 1011.38 1010.97 1011.04 1011.23 1011.64 1011.95 1012.02 1012.29 1012.53 1012.88 1012.61 1012.39 1012.46 1012.31 1012.36 1012.16 1012.24 1012.19 1012.17 1011.95 1012.24 1012.37 1012.77 1012.72 1012.73 1012.72 1012.45 1011.88 1011.71 1010.93 1010.79 1010.29 1009.98 1009.93 1009.79 1009.79 1009.70 1009.49
1012.54 1012.37 1012.40 1012.41 1012.53 1012.57 1012.50 1012.56 1012.59 1012.56 1012.83 1013.16 1013.53 1013.42 1012.94 1012.75 1012.74 1012.63 1012.87 1012.86 1012.48 1012.49 1012.60 1012.64 1012.91 1012.85 1012.60 1012.32 1012.89 1013.25 1013.06 1012.58 1012.14 1011.93 1011.03 1010.57 1010.36 1010.36 1010.51 1010.49 1010.27 1009.95 1009.84
Thickness
5775 5772 5765 5758 5754 5748 5746 5744 5741 5738 5733 5730 5726 5725 5724 5724 5723 5722 5722 5721 5721 5724 5725 5725 5729 5733 5736 5734 5736 5736 5734 5733 5713 5705 5701 5697 5694 5694 5692 5690 5690 5690 5684
5776 5772 5765 5760 5756 5750 5746 5745 5740 5735 5733 5728 5726 5723 5721 5721 5720 5721 5722 5723 5721 5722 5724 5724 5728 5730 5730 5733 5731 5732 5732 5728 5714 5705 5699 5694 5690 5689 5689 5688 5689 5688 5683
5779 5772 5767 5762 5756 5749 5746 5744 5738 5734 5730 5727 5723 5720 5719 5718 5717 5718 5719 5720 5719 5718 5718 5719 5722 5722 5720 5727 5724 5725 5725 5721 5710 5704 5697 5692 5685 5685 5684 5682 5682 5680 5678
5778 5771 5767 5760 5755 5751 5747 5743 5738 5733 5728 5723 5719 5717 5715 5713 5713 5714 5714 5713 5715 5716 5715 5712 5715 5717 5715 5714 5716 5716 5717 5710 5705 5700 5694 5689 5683 5678 5679 5679 5677 5674 5669
5775 5770 5764 5760 5755 5750 5743 5741 5737 5732 5727 5722 5717 5714 5711 5710 5711 5707 5709 5708 5710 5710 5709 5711 5712 5706 5705 5707 5708 5708 5707 5706 5701 5696 5690 5685 5680 5675 5675 5675 5671 5672 5666
5775 5769 5765 5760 5755 5749 5744 5739 5734 5729 5725 5719 5715 5712 5707 5704 5698 5696 5699 5703 5704 5705 5705 5706 5706 5700 5700 5699 5700 5699 5702 5701 5698 5692 5687 5683 5679 5675 5676 5675 5674 5666 5658
5775 5770 5763 5757 5751 5746 5742 5736 5731 5725 5722 5716 5711 5707 5702 5697 5692 5687 5689 5697 5698 5698 5699 5702 5704 5703 5701 5700 5692 5690 5692 5692 5692 5688 5685 5683 5677 5675 5670 5665 5662 5660 5665
5769 5763 5759 5758 5750 5743 5736 5730 5728 5723 5718 5714 5710 5703 5695 5694 5686 5683 5681 5686 5689 5691 5691 5693 5696 5695 5696 5697 5694 5690 5689 5687 5683 5684 5685 5684 5682 5674 5669 5666 5663 5657 5657
5759 5755 5751 5748 5747 5746 5734 5725 5719 5716 5710 5708 5707 5701 5691 5687 5683 5680 5677 5683 5685 5685 5685 5684 5686 5687 5682 5683 5688 5687 5684 5683 5677 5676 5676 5676 5673 5672 5666 5660 5655 5652 5651
5758 5749 5743 5739 5736 5737 5735 5724 5713 5710 5708 5702 5697 5696 5691 5683 5679 5676 5675 5681 5683 5684 5681 5677 5674 5675 5672 5672 5677 5678 5676 5676 5675 5670 5667 5665 5664 5662 5658 5658 5658 5652 5649
5764 5748 5737 5729 5728 5727 5723 5721 5713 5708 5707 5699 5691 5691 5689 5683 5677 5672 5671 5675 5680 5679 5680 5677 5676 5667 5663 5662 5662 5671 5671 5673 5666 5668 5666 5664 5661 5657 5654 5651 5654 5655 5649
5760 5752 5732 5721 5715 5718 5715 5715 5710 5703 5700 5694 5687 5683 5685 5679 5675 5673 5670 5666 5672 5674 5676 5676 5671 5660 5655 5652 5652 5654 5654 5654 5662 5663 5662 5660 5657 5655 5651 5648 5644 5641 5643
5743 5734 5725 5709 5704 5704 5704 5702 5702 5700 5698 5694 5685 5685 5685 5681 5678 5673 5668 5665 5662 5662 5667 5669 5664 5659 5651 5646 5645 5643 5640 5644 5650 5650 5651 5653 5651 5649 5643 5635 5631 5628 5625
5723 5713 5708 5686 5688 5692 5699 5702 5702 5699 5693 5684 5682 5681 5680 5677 5675 5674 5666 5663 5658 5656 5655 5658 5659 5660 5656 5656 5651 5642 5641 5641 5642 5641 5643 5646 5644 5637 5628 5624 5621 5618 5616
5709 5707 5696 5694 5683 5686 5693 5696 5697 5693 5686 5684 5681 5677 5669 5667 5668 5664 5665 5667 5668 5666 5659 5660 5658 5656 5654 5650 5651 5652 5648 5644 5640 5638 5638 5639 5636 5634 5627 5624 5621 5616 5612
5691 5690 5685 5683 5684 5685 5690 5689 5681 5674 5668 5664 5660 5660 5670 5660 5658 5656 5657 5656 5655 5653 5653 5654 5654 5655 5653 5650 5650 5646 5645 5639 5637 5633 5629 5632 5630 5628 5621 5617 5616 5613 5610
5678 5679 5680 5684 5681 5680 5681 5683 5681 5668 5661 5655 5651 5649 5650 5650 5649 5646 5644 5643 5646 5646 5649 5648 5647 5645 5642 5644 5640 5636 5636 5631 5628 5623 5614 5619 5622 5617 5614 5610 5605 5600 5598
5662 5663 5672 5673 5671 5672 5674 5677 5674 5670 5669 5666 5650 5651 5646 5644 5643 5638 5634 5633 5646 5640 5644 5643 5640 5636 5634 5632 5631 5629 5624 5620 5614 5608 5603 5603 5601 5602 5599 5599 5600 5597 5596
5651 5654 5657 5659 5661 5661 5668 5671 5671 5666 5662 5661 5662 5650 5645 5639 5638 5633 5627 5632 5646 5644 5636 5630 5627 5628 5628 5629 5626 5622 5616 5610 5605 5601 5596 5591 5587 5581 5587 5584 5586 5587 5588
5643 5640 5644 5651 5658 5657 5661 5664 5664 5661 5658 5657 5656 5657 5647 5640 5642 5639 5634 5634 5636 5635 5630 5624 5621 5617 5616 5614 5611 5611 5607 5602 5597 5593 5588 5585 5581 5572 5577 5576 5582 5585 5587
5642 5648 5637 5647 5651 5656 5660 5659 5656 5653 5651 5651 5643 5633 5627 5636 5640 5637 5632 5631 5634 5634 5632 5624 5618 5616 5611 5606 5604 5596 5591 5590 5585 5582 5579 5576 5571 5567 5568 5567 5566 5574 5576
5633 5637 5640 5640 5645 5646 5648 5646 5644 5642 5640 5640 5634 5627 5618 5626 5628 5625 5619 5619 5621 5618 5617 5611 5610 5610 5611 5606 5600 5591 5586 5582 5579 5575 5571 5566 5561 5557 5553 5554 5555 5560 5557
5628 5630 5631 5630 5633 5629 5629 5630 5630 5628 5627 5631 5630 5625 5620 5616 5612 5605 5603 5602 5601 5596 5592 5590 5589 5588 5584 5581 5579 5578 5578 5574 5571 5568 5564 5559 5556 5551 5544 5543 5544 5542 5542
5610 5613 5616 5614 5613 5616 5621 5617 5616 5610 5617 5614 5606 5598 5596 5592 5589 5586 5585 5583 5581 5578 5576 5571 5566 5559 5556 5550 5548 5546 5544 5543 5544 5547 5544 5544 5542 5538 5535 5534 5531 5530 5530
5595 5596 5595 5594 5596 5596 5600 5598 5594 5588 5584 5583 5579 5575 5569 5570 5570 5566 5565 5562 5560 5556 5553 5549 5546 5540 5535 5530 5526 5524 5522 5522 5522 5521 5522 5520 5522 5523 5522 5522 5520 5519 5518
5582 5582 5581 5581 5579 5577 5576 5573 5571 5571 5568 5563 5559 5558 5561 5560 5558 5556 5551 5546 5545 5541 5536 5531 5524 5520 5519 5516 5509 5506 5505 5505 5504 5503 5504 5505 5505 5503 5499 5498 5497 5498 5497